Temp
-16 -16 -15 -15 -15 -15 -14 -14 -14 -13 -13 -13 -12 -12 -12 -13 -13 -12 -12 -13 -13 -13 -11 -12 -12 -12 -12 -12 -12 -11 -11 -10 -10 -10 -10 -10 -9 -9 -9 -9 -9 -8 -8 -8 -7
-17 -16 -16 -16 -15 -15 -15 -15 -14 -14 -13 -13 -13 -13 -13 -13 -13 -13 -13 -14 -13 -13 -12 -12 -12 -12 -12 -12 -12 -11 -11 -11 -11 -10 -10 -10 -10 -9 -9 -9 -9 -9 -9 -8 -7
-18 -18 -17 -17 -16 -16 -16 -15 -15 -14 -14 -14 -13 -13 -13 -13 -14 -13 -14 -14 -14 -13 -12 -12 -12 -12 -12 -12 -12 -12 -12 -11 -11 -10 -10 -10 -10 -9 -9 -9 -9 -9 -9 -9 -8
-19 -19 -18 -18 -17 -17 -16 -16 -16 -15 -15 -14 -14 -13 -13 -14 -14 -13 -14 -13 -13 -13 -14 -13 -12 -12 -12 -12 -12 -12 -12 -11 -11 -10 -10 -9 -9 -9 -9 -10 -9 -9 -9 -9 -8
-20 -20 -19 -19 -18 -18 -18 -18 -17 -17 -17 -16 -15 -14 -15 -14 -13 -13 -14 -14 -13 -14 -14 -14 -13 -13 -13 -12 -12 -12 -12 -12 -11 -11 -10 -9 -9 -9 -9 -10 -9 -9 -9 -9 -8
-21 -20 -20 -20 -20 -19 -19 -19 -18 -18 -18 -17 -17 -16 -15 -14 -14 -13 -15 -14 -13 -14 -14 -14 -14 -13 -14 -13 -12 -12 -12 -12 -11 -11 -11 -10 -9 -8 -9 -9 -10 -9 -9 -9 -9
-21 -21 -21 -21 -20 -20 -20 -20 -19 -19 -19 -18 -18 -17 -17 -15 -15 -15 -15 -15 -14 -15 -14 -14 -14 -13 -13 -13 -13 -12 -12 -12 -12 -11 -11 -10 -9 -8 -10 -10 -10 -9 -9 -9 -9
-22 -21 -21 -21 -21 -21 -20 -20 -20 -20 -20 -19 -19 -18 -17 -16 -16 -15 -15 -16 -15 -14 -13 -14 -14 -13 -13 -13 -14 -14 -13 -12 -11 -11 -12 -11 -9 -10 -10 -10 -10 -10 -9 -9 -9
-22 -21 -21 -21 -21 -21 -21 -21 -21 -21 -21 -20 -20 -18 -17 -16 -16 -16 -16 -16 -16 -15 -15 -14 -15 -14 -14 -14 -14 -14 -13 -12 -12 -12 -11 -11 -10 -13 -12 -9 -10 -10 -9 -9 -9
-22 -22 -22 -21 -21 -21 -21 -21 -22 -22 -22 -21 -21 -20 -16 -16 -16 -17 -17 -17 -17 -16 -16 -16 -17 -16 -16 -15 -14 -14 -14 -13 -12 -12 -12 -11 -11 -12 -11 -9 -10 -9 -9 -9 -9
-22 -22 -21 -21 -21 -21 -21 -22 -22 -22 -22 -21 -19 -18 -17 -17 -17 -17 -17 -18 -17 -17 -16 -16 -16 -15 -14 -14 -15 -14 -14 -14 -14 -13 -13 -11 -12 -13 -11 -9 -9 -9 -9 -10 -9
-22 -22 -22 -22 -22 -22 -22 -21 -21 -21 -21 -21 -20 -19 -18 -19 -19 -19 -19 -18 -19 -17 -17 -16 -15 -15 -15 -14 -14 -14 -14 -14 -14 -14 -13 -12 -11 -12 -11 -9 -9 -9 -9 -9 -9
-22 -22 -22 -22 -22 -22 -22 -22 -22 -22 -22 -22 -21 -20 -20 -19 -19 -19 -19 -19 -19 -17 -17 -15 -14 -15 -15 -15 -15 -15 -15 -14 -15 -14 -13 -12 -11 -11 -11 -10 -9 -9 -9 -10 -10
-23 -23 -23 -21 -22 -22 -22 -22 -22 -23 -23 -22 -21 -21 -20 -20 -20 -20 -20 -19 -19 -18 -17 -16 -16 -16 -15 -15 -16 -15 -15 -15 -15 -15 -13 -13 -11 -11 -11 -10 -9 -9 -9 -10 -10
-24 -24 -23 -22 -22 -21 -21 -22 -23 -23 -24 -23 -22 -22 -21 -20 -20 -20 -20 -20 -19 -18 -18 -16 -17 -17 -16 -14 -15 -15 -15 -15 -15 -15 -14 -13 -12 -9 -10 -10 -10 -10 -10 -11 -10
-25 -24 -23 -22 -22 -22 -22 -23 -23 -24 -24 -23 -21 -21 -21 -20 -20 -20 -20 -20 -19 -19 -18 -18 -18 -17 -15 -15 -16 -17 -16 -16 -15 -15 -15 -12 -12 -9 -9 -10 -10 -10 -10 -10 -10
-25 -23 -23 -22 -22 -22 -23 -23 -23 -23 -23 -22 -21 -21 -21 -21 -21 -21 -20 -20 -19 -19 -18 -17 -17 -17 -17 -17 -17 -17 -18 -17 -17 -17 -15 -13 -13 -8 -9 -9 -10 -10 -10 -10 -10
-24 -23 -22 -23 -23 -22 -23 -23 -24 -22 -22 -21 -21 -22 -22 -21 -21 -21 -21 -20 -20 -19 -18 -18 -17 -17 -16 -16 -16 -16 -16 -17 -16 -15 -13 -14 -12 -9 -9 -9 -10 -11 -10 -10 -10
-24 -23 -22 -22 -22 -23 -23 -23 -22 -22 -21 -21 -22 -22 -22 -22 -22 -21 -21 -20 -20 -19 -18 -18 -17 -17 -16 -15 -15 -16 -17 -15 -17 -16 -15 -14 -11 -10 -9 -9 -10 -11 -10 -10 -10
-24 -23 -23 -22 -23 -23 -23 -22 -22 -22 -22 -22 -22 -22 -22 -22 -21 -21 -21 -20 -19 -19 -19 -18 -18 -17 -17 -17 -17 -17 -16 -18 -18 -17 -15 -14 -12 -10 -9 -9 -10 -10 -11 -11 -11
-25 -24 -23 -23 -22 -23 -23 -22 -22 -22 -22 -22 -22 -22 -22 -22 -22 -21 -21 -20 -20 -20 -20 -19 -19 -17 -18 -18 -17 -18 -17 -17 -17 -16 -16 -14 -12 -11 -10 -10 -10 -11 -11 -11 -11
-25 -25 -24 -22 -23 -23 -23 -22 -22 -22 -23 -23 -23 -23 -23 -22 -22 -22 -21 -21 -21 -21 -20 -19 -19 -18 -18 -17 -18 -18 -17 -17 -17 -16 -15 -14 -12 -11 -11 -10 -10 -11 -11 -11 -11
-25 -23 -23 -23 -23 -23 -23 -22 -22 -23 -23 -23 -23 -23 -23 -23 -23 -22 -21 -21 -21 -21 -20 -20 -20 -20 -18 -19 -18 -19 -18 -18 -17 -17 -16 -16 -13 -13 -12 -11 -11 -11 -11 -11 -11
-25 -23 -23 -23 -23 -22 -22 -22 -22 -23 -23 -23 -23 -24 -23 -23 -23 -22 -22 -22 -21 -21 -21 -21 -20 -20 -20 -19 -19 -19 -18 -17 -17 -17 -15 -15 -13 -12 -12 -12 -12 -12 -12 -12 -12
-24 -23 -23 -24 -23 -23 -23 -22 -22 -23 -23 -23 -23 -24 -24 -24 -23 -23 -23 -22 -22 -22 -22 -22 -22 -21 -19 -20 -19 -18 -18 -18 -18 -17 -17 -14 -14 -13 -13 -13 -13 -13 -12 -12 -12
-23 -23 -23 -23 -23 -22 -23 -23 -23 -23 -23 -23 -23 -24 -24 -24 -24 -23 -23 -23 -23 -23 -23 -23 -21 -21 -19 -19 -19 -18 -18 -18 -18 -16 -17 -15 -14 -12 -13 -13 -13 -12 -13 -12 -12
-23 -23 -22 -22 -22 -23 -23 -23 -23 -24 -25 -25 -25 -25 -24 -24 -24 -24 -23 -23 -23 -23 -23 -23 -21 -22 -18 -20 -21 -20 -17 -16 -15 -15 -15 -15 -14 -12 -14 -13 -13 -14 -14 -14 -13
Height
5658 5666 5672 5680 5688 5697 5706 5713 5721 5729 5737 5744 5751 5756 5762 5766 5771 5777 5786 5792 5794 5800 5805 5811 5817 5821 5824 5828 5832 5836 5840 5842 5847 5850 5855 5860 5864 5867 5871 5874 5877 5879 5879 5881 5881
5640 5648 5655 5664 5672 5680 5689 5699 5706 5715 5723 5731 5739 5745 5750 5754 5759 5766 5778 5780 5786 5792 5797 5802 5808 5813 5817 5822 5827 5830 5834 5838 5844 5845 5849 5854 5858 5863 5866 5869 5872 5874 5876 5878 5879
5623 5631 5638 5646 5655 5665 5673 5681 5690 5699 5707 5716 5725 5732 5738 5742 5748 5758 5767 5772 5778 5784 5788 5794 5798 5805 5810 5815 5821 5826 5831 5829 5835 5841 5844 5849 5853 5856 5860 5865 5866 5871 5873 5874 5876
5607 5615 5622 5630 5639 5648 5657 5666 5674 5683 5692 5701 5710 5718 5723 5729 5735 5750 5756 5764 5772 5775 5780 5784 5789 5795 5803 5808 5813 5819 5825 5825 5829 5833 5837 5843 5847 5849 5855 5858 5861 5866 5869 5870 5872
5593 5601 5607 5615 5625 5633 5641 5650 5658 5667 5676 5684 5694 5702 5706 5716 5729 5740 5748 5755 5765 5770 5773 5776 5782 5786 5792 5798 5803 5811 5819 5819 5824 5827 5832 5836 5839 5842 5850 5851 5855 5860 5864 5866 5868
5578 5587 5595 5602 5611 5619 5627 5636 5644 5652 5661 5670 5678 5684 5693 5704 5717 5727 5736 5744 5755 5762 5764 5767 5773 5777 5782 5787 5794 5801 5810 5814 5818 5823 5826 5829 5833 5836 5843 5845 5849 5854 5857 5861 5863
5562 5573 5582 5591 5599 5607 5615 5623 5631 5638 5648 5658 5662 5670 5678 5694 5704 5715 5724 5735 5745 5748 5757 5761 5765 5770 5772 5778 5783 5790 5798 5805 5811 5817 5820 5822 5827 5832 5837 5839 5844 5849 5851 5855 5858
5547 5559 5570 5579 5587 5596 5604 5611 5618 5626 5634 5643 5647 5654 5665 5680 5692 5705 5714 5723 5733 5739 5749 5754 5758 5761 5764 5770 5775 5780 5787 5797 5805 5810 5816 5816 5825 5828 5827 5830 5837 5842 5846 5849 5852
5531 5546 5548 5566 5576 5584 5592 5600 5606 5613 5620 5628 5631 5641 5653 5672 5684 5692 5702 5712 5721 5728 5736 5744 5749 5750 5755 5761 5768 5773 5781 5789 5797 5802 5808 5809 5819 5821 5822 5824 5829 5835 5838 5842 5845
5513 5531 5542 5555 5565 5573 5580 5586 5591 5598 5605 5612 5618 5629 5651 5669 5674 5680 5689 5701 5709 5716 5724 5732 5736 5741 5744 5750 5760 5769 5774 5782 5790 5796 5797 5801 5809 5814 5815 5817 5821 5824 5828 5833 5838
5495 5515 5531 5535 5550 5560 5565 5566 5575 5585 5596 5608 5622 5632 5643 5652 5656 5667 5676 5686 5696 5703 5713 5723 5727 5733 5741 5747 5755 5760 5763 5770 5779 5783 5786 5791 5797 5807 5808 5809 5814 5817 5823 5829 5834
5476 5498 5518 5533 5539 5544 5551 5564 5580 5592 5592 5597 5608 5616 5626 5637 5647 5657 5665 5673 5682 5697 5707 5713 5717 5731 5734 5739 5745 5750 5754 5762 5768 5774 5778 5782 5788 5799 5802 5804 5809 5813 5817 5822 5828
5459 5484 5507 5518 5528 5531 5547 5560 5566 5575 5580 5590 5600 5607 5616 5625 5637 5647 5655 5666 5676 5686 5695 5701 5716 5717 5722 5730 5734 5737 5744 5752 5759 5766 5769 5772 5776 5790 5796 5796 5802 5807 5812 5815 5820
5442 5470 5491 5504 5511 5524 5537 5548 5557 5565 5570 5579 5588 5596 5607 5619 5628 5636 5644 5652 5660 5678 5687 5690 5700 5705 5711 5720 5728 5733 5739 5744 5750 5755 5760 5762 5762 5779 5787 5790 5796 5803 5806 5812 5813
5429 5456 5479 5495 5505 5515 5535 5541 5549 5556 5559 5568 5579 5589 5599 5610 5620 5628 5635 5640 5654 5664 5669 5687 5690 5697 5702 5719 5720 5726 5732 5736 5741 5744 5750 5751 5751 5772 5779 5784 5793 5799 5801 5803 5804
5419 5447 5473 5485 5493 5508 5522 5531 5538 5545 5549 5562 5573 5582 5592 5602 5611 5619 5626 5632 5644 5650 5655 5666 5674 5684 5701 5704 5710 5718 5723 5728 5729 5735 5730 5748 5748 5754 5774 5781 5787 5791 5795 5797 5798
5413 5441 5462 5475 5482 5500 5512 5519 5525 5532 5547 5557 5569 5578 5586 5596 5602 5608 5618 5624 5633 5640 5649 5664 5667 5679 5688 5692 5699 5705 5715 5719 5718 5719 5727 5737 5735 5746 5766 5774 5782 5784 5787 5789 5791
5407 5431 5444 5460 5478 5491 5501 5513 5517 5530 5542 5552 5562 5570 5579 5587 5593 5600 5606 5613 5623 5635 5644 5645 5654 5665 5679 5687 5694 5702 5706 5708 5705 5711 5729 5719 5728 5739 5754 5767 5775 5778 5780 5782 5786
5398 5424 5441 5450 5469 5483 5496 5502 5512 5530 5538 5546 5554 5561 5570 5578 5585 5592 5598 5609 5619 5628 5636 5641 5648 5662 5672 5679 5682 5688 5685 5705 5698 5702 5709 5707 5729 5732 5741 5756 5767 5771 5772 5775 5778
5395 5419 5432 5444 5462 5476 5490 5499 5514 5524 5532 5540 5548 5556 5564 5573 5578 5584 5591 5604 5612 5621 5627 5633 5640 5650 5661 5661 5667 5673 5686 5685 5684 5689 5695 5705 5713 5721 5734 5744 5756 5763 5767 5769 5769
5388 5407 5429 5444 5461 5472 5482 5496 5509 5518 5526 5535 5543 5552 5559 5566 5573 5580 5588 5597 5603 5609 5613 5623 5629 5640 5642 5642 5660 5667 5668 5673 5680 5683 5688 5697 5699 5720 5724 5731 5745 5752 5755 5757 5759
5395 5409 5423 5442 5453 5466 5480 5495 5504 5513 5523 5531 5538 5546 5554 5561 5566 5574 5580 5588 5592 5601 5609 5617 5620 5623 5630 5645 5648 5652 5657 5661 5663 5674 5680 5684 5691 5708 5716 5722 5734 5739 5743 5748 5750
5397 5408 5429 5445 5447 5461 5478 5490 5501 5510 5518 5527 5534 5542 5549 5554 5561 5568 5573 5580 5587 5596 5601 5602 5606 5612 5619 5628 5631 5636 5647 5655 5661 5664 5667 5674 5682 5699 5705 5710 5716 5728 5731 5736 5739
5396 5404 5420 5437 5455 5470 5480 5490 5498 5506 5515 5522 5530 5538 5545 5549 5557 5562 5568 5573 5579 5585 5590 5593 5597 5600 5609 5621 5626 5632 5639 5644 5648 5648 5663 5659 5679 5690 5695 5700 5704 5712 5720 5724 5728
5401 5415 5429 5438 5455 5470 5481 5490 5496 5503 5511 5517 5525 5533 5540 5547 5551 5555 5558 5562 5569 5572 5576 5582 5588 5594 5605 5609 5613 5616 5624 5629 5630 5640 5641 5661 5664 5678 5684 5687 5692 5696 5706 5711 5717
5410 5422 5437 5450 5460 5470 5479 5487 5496 5503 5509 5515 5520 5527 5535 5541 5545 5546 5549 5554 5561 5563 5568 5573 5581 5583 5588 5598 5602 5603 5610 5614 5620 5625 5629 5645 5651 5671 5673 5672 5680 5687 5692 5698 5702
5416 5431 5443 5453 5461 5470 5479 5486 5492 5498 5504 5509 5514 5520 5526 5532 5536 5540 5544 5549 5553 5556 5560 5567 5573 5574 5580 5588 5585 5580 5600 5610 5615 5617 5627 5627 5652 5665 5657 5662 5667 5672 5676 5682 5687
Wind_Speed
76 75 75 75 76 74 73 72 72 70 67 67 63 64 62 58 56 57 56 49 49 54 57 56 52 51 46 44 42 40 34 34 32 33 35 38 32 27 22 19 16 18 16 14 12
74 74 75 75 77 78 76 74 73 71 71 69 66 65 64 63 62 58 54 51 48 51 55 58 56 54 53 46 42 43 41 34 35 33 34 34 30 28 24 21 19 19 18 16 14
72 71 72 74 75 77 78 78 77 75 73 72 72 68 69 68 63 62 56 54 45 46 52 58 59 58 57 52 46 41 42 39 35 36 40 38 34 32 29 24 26 19 19 18 17
65 66 69 71 71 72 74 76 77 78 78 76 76 76 74 72 68 63 62 49 44 41 51 55 58 59 58 57 53 45 41 46 34 36 36 36 37 32 29 28 27 23 22 19 18
65 65 63 66 68 69 69 70 72 74 78 81 81 80 74 74 73 67 61 64 56 46 51 49 51 53 55 59 56 52 46 45 44 33 38 38 41 38 32 33 29 25 25 23 20
66 65 61 60 61 64 64 65 67 69 70 76 79 82 81 80 73 72 64 63 62 63 48 41 40 44 52 55 59 56 51 46 45 39 33 40 40 41 34 35 32 28 27 24 22
70 66 63 60 58 59 60 61 62 65 67 69 74 78 80 80 73 71 65 63 65 59 58 51 39 44 36 45 50 58 55 52 45 45 32 35 39 36 33 36 34 30 30 28 26
75 67 64 60 58 55 57 57 59 62 64 66 70 76 79 79 77 70 69 64 65 65 64 53 41 35 41 52 48 52 56 55 46 46 41 37 32 28 32 36 36 33 31 29 29
73 70 69 64 57 56 53 56 57 56 59 63 69 72 76 75 76 74 71 66 64 64 59 64 43 44 51 45 51 53 52 56 48 43 42 41 36 26 29 37 33 33 32 32 32
75 73 69 63 59 55 52 54 55 55 61 58 67 70 74 72 74 71 73 64 65 67 58 54 60 53 63 56 42 46 48 48 47 45 41 45 36 27 34 36 35 35 36 35 32
81 76 66 58 62 66 60 61 61 60 57 61 64 67 69 70 72 71 72 67 66 65 61 48 52 47 52 63 54 53 45 46 44 44 44 45 43 32 35 39 34 33 36 31 29
86 80 71 62 67 76 64 58 52 50 56 59 61 64 67 64 62 64 66 67 62 64 57 59 58 49 53 50 53 55 55 52 48 44 46 46 46 39 37 37 32 32 33 34 31
89 82 59 56 67 65 60 55 57 55 55 56 57 61 64 64 63 62 60 62 60 64 69 58 52 50 43 47 44 37 54 55 51 46 48 49 51 41 40 38 34 31 32 32 31
86 83 79 60 67 57 58 54 56 57 56 57 58 59 61 58 58 57 58 60 60 61 70 78 75 62 53 59 47 39 40 50 51 49 51 53 59 50 46 40 37 29 28 28 30
75 83 81 74 69 66 56 56 56 55 54 58 56 57 59 59 57 53 52 59 58 62 72 70 76 63 76 64 56 47 39 43 48 49 52 57 61 53 47 43 34 28 25 29 32
75 79 67 63 73 68 57 60 62 57 55 58 57 57 59 60 58 55 54 55 57 63 72 71 74 73 60 70 57 54 53 46 52 53 57 54 58 64 47 43 36 33 28 29 32
75 78 77 74 71 57 58 62 60 61 58 58 54 55 55 56 55 55 54 55 57 62 69 68 72 77 74 69 64 59 53 52 52 57 57 53 58 66 48 44 37 35 34 31 30
93 70 55 68 70 65 58 64 62 62 56 54 53 51 53 51 53 51 52 56 56 56 60 63 69 74 76 75 67 59 59 66 63 59 53 61 58 66 57 46 36 37 35 35 27
79 79 60 75 63 69 69 69 66 57 55 56 53 51 51 51 49 51 53 54 53 53 57 60 60 59 55 57 62 61 59 58 68 67 61 63 55 62 61 52 43 35 30 33 29
89 72 66 72 63 70 69 66 59 54 54 54 53 49 48 47 50 50 51 51 54 51 52 53 55 56 62 59 59 58 57 50 58 62 62 58 57 62 59 56 45 42 38 33 29
90 68 62 64 67 67 62 56 53 52 51 50 48 46 47 44 44 46 46 47 51 49 53 52 54 56 67 71 60 59 61 58 53 52 50 49 56 51 54 55 45 43 40 38 38
80 69 66 69 65 62 54 49 48 50 46 47 46 43 43 44 42 40 43 42 51 50 48 50 50 57 59 60 64 61 53 57 62 58 52 53 56 48 49 53 45 40 44 42 40
49 66 71 72 72 63 53 48 47 48 44 44 45 44 43 44 42 40 40 46 47 48 51 54 53 53 57 51 60 67 59 59 58 55 55 53 52 43 43 46 47 38 41 44 45
52 76 77 71 60 51 48 44 45 45 44 43 43 42 43 43 42 42 42 40 48 47 51 55 58 60 55 54 53 51 57 54 63 67 57 60 49 44 43 43 45 41 41 44 42
51 73 70 64 51 43 39 38 40 40 39 40 41 41 42 43 42 43 38 44 46 46 54 40 48 60 57 54 52 48 40 51 59 63 68 48 53 45 45 43 39 41 42 45 46
61 62 58 44 40 38 36 33 32 30 31 34 35 39 41 43 45 44 43 42 47 46 46 55 48 49 61 63 65 61 58 56 58 57 60 54 52 42 43 49 46 39 40 47 51
50 45 46 42 37 36 32 28 29 29 28 30 32 36 39 40 48 52 50 48 46 49 52 49 55 51 57 56 61 72 57 52 54 57 56 60 49 37 50 48 49 49 47 48 51
Wind_Direction
246 244 241 240 239 236 235 234 234 233 233 235 234 235 240 240 240 241 242 240 238 236 238 244 245 248 248 248 246 233 244 242 242 242 239 231 228 231 232 244 255 250 253 252 255
245 244 242 239 237 235 235 234 234 233 233 234 235 235 236 239 243 241 240 239 241 239 237 241 245 246 249 248 246 245 245 240 240 240 238 235 233 234 235 243 246 245 246 244 247
244 243 241 240 237 235 232 230 231 232 232 233 233 234 236 237 239 240 238 235 237 249 238 238 244 247 249 250 251 247 250 241 238 238 238 233 233 230 238 239 241 242 240 237 240
242 239 239 238 237 235 233 232 230 229 229 230 231 233 235 236 237 236 237 219 232 240 236 234 239 243 248 252 255 254 250 245 238 239 240 235 233 232 233 240 238 236 236 235 237
236 237 235 235 234 233 233 230 230 231 230 228 227 229 230 233 236 236 233 227 229 232 233 233 237 240 243 245 250 251 249 252 241 245 242 237 236 236 235 238 236 233 234 233 239
235 232 231 232 232 232 231 230 229 230 230 232 229 229 228 231 232 235 230 230 231 223 232 230 229 244 242 242 246 249 248 248 250 243 246 244 243 239 234 233 233 231 228 230 232
235 231 230 228 229 229 229 228 228 228 229 229 231 230 230 229 229 230 231 227 228 230 226 231 232 219 218 243 241 244 244 246 249 246 248 240 239 242 231 233 232 232 228 228 229
233 232 231 229 228 227 227 227 228 227 226 227 228 229 230 229 229 229 230 228 227 232 224 236 213 211 220 228 238 242 240 244 246 250 248 239 228 230 226 229 231 232 233 227 230
228 226 223 227 228 225 225 226 226 226 225 224 227 228 229 229 229 230 230 229 229 230 231 232 239 236 222 236 234 237 241 242 241 249 247 243 231 231 232 232 229 232 231 230 229
223 221 228 228 227 224 222 222 222 224 224 224 225 226 228 229 230 231 231 230 227 230 230 232 239 246 245 250 247 237 238 239 239 241 247 246 239 229 235 232 229 229 230 229 230
218 218 219 223 224 226 221 219 219 220 223 229 230 230 229 229 228 228 229 230 228 227 228 218 231 227 238 250 256 244 235 239 235 234 238 244 244 235 236 237 234 233 233 234 229
214 214 212 223 229 227 221 221 225 229 230 227 226 226 228 228 230 230 230 229 226 225 226 218 211 237 235 244 242 244 236 239 237 235 239 242 247 234 238 239 241 237 241 234 230
210 210 204 220 227 217 216 217 220 220 225 227 230 230 228 228 230 231 232 231 229 221 211 208 204 213 214 222 221 221 232 232 234 233 237 242 244 240 237 238 237 239 242 230 226
205 204 200 205 205 219 215 216 220 219 223 225 224 226 228 231 232 232 230 230 224 219 222 222 223 224 228 228 235 224 228 234 237 233 234 241 244 237 233 239 238 238 241 235 236
196 201 199 202 218 223 214 215 220 220 222 223 223 226 228 226 230 235 235 230 225 219 221 224 227 228 225 227 240 239 249 249 243 242 235 236 246 231 234 233 242 239 233 233 237
186 194 194 210 206 209 218 215 219 217 220 224 225 226 227 229 230 232 232 229 225 221 222 221 223 221 222 222 233 249 256 245 243 238 238 237 245 238 232 234 237 239 233 234 239
180 183 193 204 200 206 207 212 213 217 221 224 227 229 229 230 232 232 229 229 227 223 222 225 224 222 225 228 243 244 241 238 239 238 239 237 239 237 233 231 236 241 237 236 241
174 180 182 202 202 206 212 209 208 220 222 225 226 227 228 229 228 227 229 226 226 225 224 227 225 225 228 237 242 245 245 238 241 243 244 242 240 240 237 233 233 241 242 241 246
176 178 192 199 198 203 213 210 217 221 225 226 225 225 226 226 226 226 227 226 227 228 226 226 228 230 228 230 229 229 237 240 242 245 243 241 242 244 243 240 236 240 243 243 241
174 178 180 191 206 204 209 215 217 218 224 227 227 229 229 227 227 224 224 224 226 226 223 225 225 222 215 219 222 226 231 230 236 237 242 242 241 243 243 245 240 240 244 245 241
180 176 189 193 193 200 204 210 214 218 222 224 228 229 232 230 227 225 224 224 224 224 223 220 223 221 221 226 229 226 230 227 229 234 236 241 241 244 247 248 240 235 239 240 241
177 184 183 189 186 195 206 210 213 217 220 221 223 226 231 232 230 227 226 222 224 224 224 220 224 222 225 222 224 225 224 230 230 232 236 239 242 242 247 251 246 231 236 241 243
175 186 184 194 189 193 203 209 213 218 218 221 224 226 228 231 231 226 226 226 227 225 222 222 215 227 223 222 223 227 235 234 231 235 237 240 242 237 238 242 246 231 232 235 241
182 179 182 192 191 203 206 208 213 215 220 222 223 227 229 234 230 232 228 222 224 224 223 226 222 220 223 224 229 235 236 240 234 235 238 242 243 234 237 242 242 239 229 231 232
183 180 181 186 184 190 207 213 212 218 223 226 227 226 229 230 234 230 228 224 222 216 214 214 233 227 220 224 220 217 229 235 237 239 242 237 242 233 242 240 243 244 232 226 231
173 182 180 179 185 194 200 205 216 222 229 231 232 231 231 230 225 216 217 220 219 214 213 213 214 229 223 225 225 230 235 241 242 240 240 240 241 236 239 238 241 244 237 229 228
176 187 187 183 188 195 197 197 204 210 219 227 229 227 227 230 229 226 226 222 219 222 218 216 218 228 223 228 233 237 231 242 248 249 251 249 247 233 248 241 239 245 247 242 235